Theta_e
335 335 336 336 336 336 336 336 337 336 335 336 337 338 336 336 340 343 345 347 350 353 353 354 353 353 352 351 350 350 350 353 353 346 347 337 341 341 343 344 348 355 361 361
337 337 337 337 335 336 335 335 336 336 336 336 338 337 337 338 341 344 346 347 349 350 354 356 356 357 356 354 353 351 351 351 354 354 354 348 349 356 354 354 355 363 362 362
338 336 336 337 335 335 335 336 335 336 336 338 337 336 336 338 339 340 341 343 347 347 349 357 358 358 359 358 358 355 355 352 353 353 350 350 351 359 362 360 364 364 361 358
335 334 336 333 331 331 332 332 333 334 334 336 336 335 334 337 337 337 338 339 343 346 350 357 357 358 358 358 359 359 356 356 355 354 353 354 355 360 361 363 363 360 360 351
330 329 329 327 327 328 328 328 333 334 334 335 336 335 337 338 336 336 336 336 336 340 345 350 359 360 361 359 358 360 360 359 358 358 359 361 362 363 364 362 358 359 352 350
327 327 327 327 332 330 331 331 335 335 336 336 335 337 338 335 335 335 335 334 333 335 339 345 349 356 360 361 358 358 359 359 359 359 360 362 363 363 361 359 358 356 351 349
327 328 327 327 330 329 330 333 331 331 333 333 336 336 335 332 332 332 332 332 332 333 336 344 348 352 359 360 360 360 360 359 362 363 362 362 363 361 359 357 355 351 349 345
329 329 328 330 329 330 331 328 329 329 330 331 331 331 330 330 331 331 331 331 331 332 335 337 344 349 351 358 359 360 361 360 363 364 363 359 357 359 359 354 353 350 345 337
331 331 330 329 329 328 326 325 325 327 327 326 326 327 328 328 328 328 330 331 331 331 333 334 338 344 350 351 355 356 356 359 360 361 360 360 354 357 354 353 351 346 340 338
327 326 326 325 326 325 325 324 323 323 323 323 323 324 325 327 327 327 328 330 330 330 332 334 335 339 344 348 352 353 353 353 338 353 358 358 357 352 350 348 347 344 338 336
325 324 323 323 323 323 322 321 322 322 322 322 322 322 323 324 324 325 326 329 330 330 330 332 334 336 339 345 347 351 353 350 353 353 353 353 351 351 349 346 344 341 335 331
324 322 322 322 321 321 321 321 321 321 321 322 323 323 323 323 323 324 325 327 328 330 329 330 332 334 337 338 342 350 351 350 350 349 347 348 346 342 336 340 335 333 326 318
321 320 320 320 320 320 320 320 320 321 322 322 322 322 323 324 325 325 325 326 327 327 328 329 331 333 335 335 341 344 349 348 348 346 344 341 340 340 339 333 332 318 317 315
320 320 319 319 319 319 319 320 320 320 320 320 321 322 322 324 325 326 326 325 326 327 327 328 332 333 334 335 338 342 346 347 346 345 341 339 333 327 324 322 320 317 317 315
319 318 319 319 319 319 320 321 321 321 321 322 322 322 322 323 324 325 326 327 328 328 328 331 333 333 334 333 336 339 341 344 345 341 338 337 323 320 319 319 319 317 316 315
317 317 317 318 319 321 321 320 320 322 322 322 322 321 323 323 323 324 326 327 328 330 330 332 333 333 332 332 333 336 338 341 341 338 336 328 325 323 325 325 320 317 317 313
317 317 318 318 319 319 319 320 321 321 321 321 321 321 322 322 323 323 325 327 327 331 332 332 334 332 330 330 332 334 334 335 336 333 326 325 326 326 324 321 318 316 314 312
316 318 318 317 318 318 317 317 318 319 320 320 320 321 321 323 323 324 325 326 328 330 331 329 326 327 328 329 330 331 333 332 331 329 327 326 326 324 322 319 318 315 313 311
316 317 316 317 316 317 316 317 318 318 318 320 321 320 321 323 323 324 325 326 328 330 330 327 327 326 327 328 329 328 329 329 329 327 327 326 323 319 318 318 317 315 312 310
317 317 315 315 314 315 315 316 319 320 320 320 319 322 321 322 324 324 325 326 328 329 329 327 326 326 327 328 328 328 327 327 327 327 326 324 322 320 316 313 312 311 312 311
317 317 316 313 315 317 319 321 323 322 321 322 322 322 323 323 325 325 325 326 328 329 328 327 326 326 326 327 325 324 323 323 322 322 320 320 320 316 312 311 311 311 311 310
317 314 314 314 317 317 318 321 321 322 323 322 322 324 325 325 326 327 327 327 327 326 326 325 325 324 324 324 323 322 320 319 319 319 318 315 312 310 311 310 310 310 309 309
317 314 315 317 316 317 316 318 319 318 319 320 320 322 323 325 325 326 327 325 324 324 325 325 323 323 321 319 318 317 314 313 314 313 312 312 312 312 310 310 309 308 308 307
316 315 314 316 317 317 317 317 318 317 317 317 318 318 323 324 325 325 326 325 324 324 322 322 321 318 317 315 314 313 311 311 310 311 311 311 311 311 310 309 309 308 305 307
317 318 317 316 317 317 318 317 316 317 317 317 316 318 324 324 325 324 324 323 321 320 317 315 312 310 309 310 310 310 310 310 311 309 309 310 310 310 309 308 308 306 308 308
316 316 316 316 316 317 317 317 316 317 316 314 314 315 320 319 320 318 317 317 316 316 315 315 315 315 313 311 310 308 308 306 307 308 308 308 308 308 308 307 305 307 308 308
315 314 314 315 316 317 316 318 317 317 316 316 315 315 315 315 316 316 316 316 315 314 312 311 311 311 310 310 310 309 309 309 309 309 308 308 307 307 307 307 308 308 308 308
Wind_Speed
19 20 18 12 15 13 14 13 15 15 17 14 12 10 8 9 13 13 12 12 12 12 11 11 16 17 21 25 26 28 31 30 30 30 27 27 26 25 22 19 18 15 13 10
20 20 17 22 18 19 19 19 20 19 19 15 9 6 10 9 10 11 12 13 14 15 12 10 16 18 19 22 27 27 31 34 29 28 28 30 26 21 20 17 16 14 12 11
19 16 19 24 19 22 18 21 19 20 17 5 5 6 6 7 8 10 12 14 15 16 15 12 12 17 20 20 20 27 28 32 30 29 30 30 27 21 18 16 14 14 11 17
15 18 22 16 16 14 10 14 17 15 12 5 6 9 6 7 8 9 11 14 16 18 18 13 11 12 17 20 21 24 30 30 31 32 29 29 26 21 19 15 17 15 20 12
14 16 20 18 9 8 12 13 7 8 3 2 5 11 2 7 7 9 11 13 15 17 18 16 12 10 11 17 20 23 26 29 29 29 28 25 22 20 19 20 20 22 16 12
13 17 19 14 10 9 6 11 13 7 7 7 8 10 6 10 10 12 13 14 16 17 17 16 17 14 12 13 17 22 24 26 25 28 28 26 23 23 24 23 22 18 17 15
14 15 19 14 7 2 9 2 7 7 7 8 8 11 20 15 14 14 15 16 16 16 16 15 16 16 13 13 16 18 19 21 22 23 27 26 27 27 25 23 18 20 16 11
13 17 21 10 4 7 7 5 7 7 9 11 11 14 17 18 17 17 17 17 17 16 16 16 15 17 16 15 14 17 17 21 24 27 28 33 30 27 26 27 24 20 14 8
9 10 6 4 4 3 6 10 13 11 11 15 18 19 19 19 20 20 20 19 18 17 17 16 16 16 18 18 17 19 26 26 26 25 27 33 32 31 31 28 23 19 15 13
13 16 16 13 2 8 17 19 14 18 21 24 27 27 26 24 24 23 22 22 20 19 18 18 17 17 18 20 16 17 22 27 43 30 32 31 32 25 22 21 19 19 17 16
15 18 23 22 21 19 21 22 23 25 27 28 31 31 30 29 29 28 26 24 22 21 20 20 19 19 18 18 17 17 25 25 22 35 33 27 26 24 21 16 16 15 16 17
6 12 16 19 22 25 27 29 30 30 30 30 27 28 28 29 29 30 29 26 24 23 22 21 20 20 19 18 18 21 26 28 28 27 26 33 33 25 18 14 12 17 17 14
15 18 21 24 26 23 28 27 28 26 25 26 27 29 29 29 28 28 29 29 28 26 24 23 22 21 19 20 17 21 32 32 30 31 27 27 25 27 34 32 19 17 15 10
13 18 22 23 24 24 28 30 31 31 32 33 33 30 30 30 28 28 27 28 28 27 27 26 23 22 20 18 19 23 35 33 33 34 27 29 26 28 31 35 33 29 18 13
18 18 23 27 27 28 27 30 31 31 30 29 30 31 31 30 30 29 25 25 25 25 25 22 22 21 20 18 20 24 29 39 37 36 30 28 27 25 25 23 21 22 21 15
24 24 26 25 27 30 30 30 31 31 29 26 27 29 30 31 30 29 27 24 22 22 21 20 19 19 21 20 19 22 27 43 39 40 38 34 23 20 17 16 16 14 13 13
23 26 28 29 31 33 32 31 31 32 31 32 32 31 31 35 33 28 28 26 25 17 19 17 16 18 21 16 15 17 24 37 43 40 40 32 22 19 17 17 15 17 18 15
22 22 25 30 33 32 33 34 35 35 37 38 36 35 33 31 34 31 27 24 23 14 16 19 17 15 15 12 11 16 25 35 36 34 29 24 21 20 14 14 12 12 13 13
20 22 29 32 31 33 33 34 35 37 40 37 35 36 33 31 30 31 27 25 19 19 17 17 12 10 10 8 14 10 25 36 39 36 32 30 23 18 10 14 13 10 8 13
22 23 31 32 33 33 39 34 33 33 34 33 31 30 31 29 26 28 26 24 19 18 14 13 8 10 12 14 16 20 25 29 31 30 26 24 20 18 15 14 11 13 14 7
20 24 26 28 32 33 24 24 23 23 22 20 20 22 23 23 24 24 23 21 16 15 15 15 11 16 17 14 13 12 15 16 19 22 21 20 17 19 21 15 15 10 9 8
17 24 26 26 35 32 27 27 23 24 18 15 11 13 17 18 17 20 20 16 19 15 15 13 13 16 19 18 17 17 19 18 16 15 11 14 18 18 16 15 13 12 12 10
16 20 22 23 23 27 29 30 25 24 21 20 16 14 16 18 17 16 16 16 12 11 12 14 18 15 18 24 24 21 21 15 14 13 16 15 13 13 11 12 12 12 12 11
16 18 18 22 23 20 27 34 24 25 21 19 18 14 13 13 14 10 14 13 12 14 17 18 18 28 27 23 21 20 19 17 16 16 18 18 14 13 13 13 12 12 15 14
15 16 16 20 23 28 26 28 27 24 23 22 20 8 3 6 9 13 12 12 15 25 29 28 28 26 26 24 20 17 16 15 12 10 13 14 14 14 13 13 12 13 13 12
13 14 17 20 20 23 27 24 27 27 28 25 20 14 10 14 16 16 24 33 35 32 28 25 19 16 16 14 15 15 16 17 17 15 15 15 14 14 13 13 14 13 11 11
11 14 15 17 19 22 25 24 21 25 25 28 32 30 32 31 31 32 33 30 30 25 19 18 19 16 16 16 15 17 16 14 14 13 12 12 12 11 10 10 9 9 8 7
Wind_Direction
280 288 293 289 274 264 264 270 268 282 293 310 335 2 336 332 346 352 356 355 350 341 321 267 234 230 222 217 218 214 212 211 218 219 218 218 223 234 244 241 247 238 232 241
276 281 283 280 262 267 271 272 273 274 277 291 34 351 346 347 346 357 4 1 354 347 326 296 249 239 233 225 217 215 219 218 212 218 215 223 227 225 224 228 236 220 224 232
264 263 271 263 258 258 268 272 267 267 277 24 342 5 331 359 6 4 359 357 356 349 335 317 276 248 237 235 227 216 218 223 216 218 218 221 221 210 213 219 210 209 210 227
273 283 258 269 290 316 308 300 307 303 302 17 353 331 307 75 18 359 359 356 356 356 353 334 305 270 247 236 237 225 218 218 218 216 216 217 216 209 211 204 203 197 216 225
259 255 264 266 256 264 266 263 343 311 297 273 326 321 245 88 5 352 345 347 349 349 350 351 338 301 274 250 233 229 223 218 213 211 206 204 205 206 199 198 198 210 220 216
251 263 267 277 50 21 307 248 23 352 319 317 317 281 71 2 341 337 338 337 338 341 342 343 347 327 292 269 242 234 228 221 210 202 198 196 197 192 193 200 205 206 206 215
238 250 263 289 75 73 252 34 3 353 327 305 298 324 318 326 328 330 331 336 340 339 336 337 336 332 317 285 264 247 237 222 207 196 184 186 185 196 191 191 184 195 206 205
247 261 263 25 305 272 43 1 338 324 319 312 300 300 303 308 312 316 320 323 331 333 334 332 331 324 321 303 274 261 233 214 205 193 184 190 194 188 181 188 189 202 191 181
323 330 26 4 49 31 325 319 309 293 297 305 298 294 294 297 303 307 307 311 315 320 323 328 328 317 313 306 283 262 231 214 195 192 186 189 189 183 186 190 189 187 177 166
279 287 297 301 324 294 297 296 301 291 295 293 294 292 289 288 293 297 298 298 302 307 310 314 318 313 306 299 290 269 241 219 203 224 205 184 179 174 180 174 171 173 175 167
280 280 290 293 302 321 308 298 292 287 283 284 284 283 282 281 282 285 288 288 288 293 299 302 305 305 300 297 275 267 254 233 205 175 185 165 164 164 176 181 180 178 171 174
314 342 311 304 304 305 302 295 290 289 284 281 279 279 277 276 277 277 276 277 279 282 289 291 292 292 295 288 271 251 249 225 221 186 176 173 171 172 157 200 187 188 197 196
310 308 297 296 294 292 291 294 296 298 296 291 287 285 282 280 279 279 275 270 270 273 279 283 285 284 285 287 264 247 236 225 229 216 187 189 191 180 168 179 199 230 221 207
295 294 289 295 301 297 296 292 289 286 280 282 282 277 275 275 276 277 274 269 268 270 272 275 278 277 278 277 257 246 232 234 221 216 203 202 190 183 183 186 184 188 192 194
301 303 298 295 300 298 293 298 291 280 283 289 287 281 273 272 277 280 277 272 269 270 269 271 273 274 276 267 255 236 227 218 223 201 204 206 187 184 180 178 180 177 183 187
303 302 296 302 300 299 296 292 294 287 284 280 282 280 276 274 268 273 278 268 266 263 268 268 270 273 268 270 257 241 233 221 234 204 203 192 182 176 170 170 181 168 162 174
313 316 314 309 303 301 294 294 291 283 280 281 280 277 277 272 278 265 267 271 268 246 266 268 271 277 275 287 265 244 231 214 208 201 187 183 166 175 171 174 170 173 185 184
317 319 310 313 307 302 297 294 293 284 282 280 278 277 272 263 264 262 256 261 265 277 263 263 289 289 284 296 257 241 213 195 183 178 169 164 169 170 166 168 168 185 191 180
311 315 320 310 312 309 303 297 291 285 282 279 273 268 263 257 254 256 250 250 250 252 259 276 289 287 264 226 191 171 172 167 175 171 167 166 167 145 167 162 154 164 169 170
315 313 319 331 327 315 306 299 297 294 289 283 269 262 254 253 248 246 246 244 246 250 244 259 260 222 217 195 182 178 170 168 166 171 177 175 180 170 207 191 177 167 189 191
326 333 331 335 342 342 340 337 325 309 308 297 264 251 247 248 241 247 240 242 241 235 227 237 242 213 199 188 181 165 152 151 159 157 157 164 180 180 189 169 168 166 173 170
325 340 352 341 339 345 355 352 346 353 344 329 299 270 258 253 246 242 248 225 229 228 224 233 225 207 196 183 173 165 149 143 145 145 162 172 182 170 164 175 170 181 168 157
327 335 338 332 350 351 0 357 357 354 345 346 328 294 268 259 251 242 222 221 215 207 209 214 185 180 170 144 137 132 120 122 134 139 141 159 144 145 154 150 154 160 157 146
316 324 334 348 347 351 359 359 356 355 350 335 324 311 274 254 235 216 214 212 214 185 170 172 168 147 144 139 141 136 139 148 141 135 152 146 146 149 160 144 145 148 137 119
324 323 333 340 347 357 6 8 14 11 3 348 339 332 214 175 216 188 196 191 189 152 135 129 125 130 126 125 121 127 136 140 137 132 135 147 146 141 142 140 144 140 132 132
347 346 348 356 350 358 7 18 14 25 29 42 59 88 113 128 135 129 128 123 122 119 121 125 132 137 138 128 127 129 131 133 132 143 143 139 142 140 138 150 149 134 137 137
351 3 359 358 1 1 13 20 30 47 53 63 70 89 95 101 106 119 126 128 129 122 124 126 126 132 130 125 127 125 119 128 128 128 131 130 128 135 142 138 137 143 144 148